Location: Alulod
(14.2076°N, 120.8898°E)
Time: 02:46:17
(UTC+00:00)

Cosmos 1606 Rocket - Pass Details

Date: 13 December 2025
Orbit: 596 x 625 km, 82.5° (Epoch: 15 January)

Event Time Altitude Azimuth Distance (km) Brightness Sun altitude
Exits shadow 20:35:50 25° 8° (N) 1,252 5.0 -22.5°
Maximum altitude 20:38:18 68° 85° (E) 655 3.8 -22.0°
Drops below altitude 10° 20:42:35 10° 169° (SSE) 1,946 6.5 -21.0°
Sets 20:44:48 0° 171° (S) 2,844 7.4 -20.5°
